Wind_Speed
81 81 81 80 77 74 69 67 67 63 62 64 63 61 60 61 59 63 64 63 63 61 59 55 54 55 55 59 58 59 58 53 55 53 53 49 49 49 48 45 41 38 38 36 28 27 31
88 86 85 84 82 79 75 72 69 62 61 62 63 60 60 62 60 60 62 62 62 61 57 57 54 54 52 52 51 50 59 57 55 55 54 51 48 48 49 46 45 40 40 42 35 26 25
92 91 90 89 87 82 79 75 72 63 61 60 62 62 61 61 61 60 60 61 61 61 59 54 56 52 53 52 52 50 47 54 56 55 56 56 54 51 49 49 46 43 42 40 39 39 29
84 85 88 89 89 86 82 79 73 66 63 61 62 60 62 63 61 62 61 60 60 59 59 57 56 55 54 54 53 51 48 46 51 59 52 57 56 54 49 50 47 45 45 42 38 33 35
55 56 62 76 83 86 86 82 76 70 78 63 63 63 61 64 62 61 62 62 61 59 59 59 58 55 57 56 54 51 50 48 48 52 59 53 54 54 52 50 49 48 47 45 39 39 35
44 44 48 50 59 79 85 86 80 78 54 58 66 65 63 63 64 61 61 61 62 62 62 58 58 56 58 53 55 53 51 51 49 50 53 61 56 54 52 51 51 48 48 48 42 40 45
45 44 44 46 50 58 81 87 82 74 66 62 67 66 60 63 64 65 64 64 63 63 60 56 57 56 57 58 59 57 52 50 52 53 54 52 62 59 50 50 47 47 49 50 45 42 47
43 35 38 42 50 56 74 84 80 70 66 68 66 65 63 63 64 64 64 60 55 56 60 59 57 57 61 59 61 60 55 53 54 55 56 57 54 53 58 55 53 52 52 50 49 47 49
53 51 52 51 45 54 64 84 85 85 54 67 69 66 62 63 64 66 62 58 57 55 59 61 62 62 61 59 56 56 54 53 52 52 54 54 52 55 55 59 56 54 55 51 51 49 52
55 53 48 53 54 50 61 80 88 86 76 73 66 66 63 64 66 67 65 61 58 57 59 61 61 62 64 62 59 55 52 47 46 46 46 46 50 52 54 53 56 56 51 52 52 52 53
58 56 52 54 56 53 62 81 81 83 67 68 71 67 68 64 61 63 60 61 59 59 61 62 60 60 60 62 58 55 53 50 47 44 41 43 45 48 53 53 53 54 53 54 53 53 54
46 50 57 57 61 57 68 88 88 80 68 69 70 67 66 64 63 60 62 61 62 63 66 65 61 60 59 57 55 54 50 49 48 46 41 36 40 45 44 46 53 53 52 53 55 56 62
30 41 49 59 61 60 71 93 94 69 72 67 66 65 64 61 59 61 61 63 61 64 63 63 60 58 55 55 53 52 53 52 48 47 44 47 48 50 47 47 47 58 56 53 55 59 69
19 34 49 51 58 63 78 95 86 74 73 67 62 64 62 59 59 61 60 61 63 63 64 59 57 57 55 54 53 49 51 50 47 44 43 46 50 50 50 48 45 47 52 56 59 63 64
26 36 40 51 56 67 95 94 74 78 70 68 64 63 59 59 59 61 59 59 61 60 56 57 57 55 57 56 52 51 50 46 42 40 43 45 48 47 50 46 42 42 50 43 54 55 58
30 38 39 50 51 75 92 83 67 57 77 72 67 64 60 59 60 60 59 59 56 54 53 56 56 53 53 50 53 53 50 46 43 43 44 45 47 49 53 54 55 51 39 46 51 54 62
34 38 40 45 60 76 96 80 60 61 68 64 66 63 60 61 61 60 62 61 55 60 57 54 51 50 47 47 47 46 47 46 45 45 48 50 52 52 50 50 53 53 53 48 47 50 55
43 38 34 45 67 97 86 83 59 71 72 66 65 62 60 63 66 67 63 67 72 46 62 55 50 50 46 43 44 45 45 44 46 46 49 49 54 57 56 40 34 44 57 54 52 49 52
32 38 34 46 80 85 65 52 68 71 65 62 60 56 59 65 70 67 61 60 68 65 58 56 55 53 50 48 45 43 44 46 49 47 47 50 54 56 61 63 44 40 40 45 48 49 58
38 31 48 67 79 55 55 67 62 58 58 57 56 61 62 65 66 64 64 60 62 65 66 64 62 58 53 49 46 47 44 45 48 48 49 49 54 55 55 52 54 56 49 45 46 43 41
47 45 41 51 56 48 52 60 55 56 57 55 53 57 58 58 60 59 58 56 58 58 60 60 59 58 54 52 49 50 50 54 49 46 50 52 52 55 57 59 53 54 67 59 56 45 51
43 48 44 47 56 54 53 54 56 54 51 50 47 47 47 49 51 53 53 50 47 48 48 49 49 49 45 46 46 45 47 51 51 52 48 49 53 56 57 56 51 61 55 64 59 42 46
40 45 50 52 51 52 48 45 47 46 44 45 44 41 38 39 43 46 48 45 40 37 36 37 37 38 40 38 41 45 51 53 51 51 52 50 47 58 64 59 56 62 54 59 59 54 47
35 38 42 43 44 43 44 43 44 44 42 37 36 36 36 39 40 37 40 38 38 38 38 38 39 40 41 43 47 50 52 57 56 55 54 52 50 49 65 64 65 61 55 53 49 52 50
31 36 38 41 40 41 42 41 43 45 42 37 32 36 35 39 37 40 38 37 36 36 37 36 35 37 41 44 49 52 54 60 60 60 55 55 51 56 53 63 62 69 65 55 46 38 44
34 32 37 40 40 42 43 43 44 39 39 39 38 42 36 37 41 37 35 36 36 34 33 35 38 42 45 47 52 53 56 56 63 64 65 54 52 54 65 59 58 62 49 46 48 47 39
29 27 31 31 32 36 38 37 40 42 42 36 30 33 37 39 39 38 35 33 32 32 32 33 37 42 46 48 51 55 56 55 61 67 66 63 53 59 56 63 57 44 49 48 46 31 31
28 33 35 29 39 32 31 38 34 35 42 32 32 32 36 38 34 32 31 30 30 32 32 33 39 42 47 48 49 48 51 53 58 66 67 44 38 55 52 58 51 47 54 44 36 38 34
25 35 36 40 42 35 35 39 34 36 42 31 33 34 37 35 32 29 28 29 28 27 32 34 37 40 42 44 40 37 46 48 55 60 49 40 34 39 50 51 48 53 50 47 44 40 42
Wind_Direction
260 257 253 250 248 245 243 243 242 240 236 233 231 231 228 225 223 220 218 216 214 214 216 218 218 219 219 223 225 225 225 222 223 225 229 228 233 235 236 235 233 229 226 223 218 232 225
261 256 253 249 245 242 240 239 239 235 232 229 228 227 226 224 220 217 215 215 213 213 212 214 218 219 219 220 220 223 222 223 223 223 226 227 227 230 234 235 234 230 223 233 236 230 226
260 255 251 248 244 240 237 235 237 233 228 225 226 224 222 221 220 215 213 214 212 211 212 213 217 220 221 220 218 218 218 218 221 224 224 226 226 230 233 235 235 232 229 225 237 235 227
258 254 251 244 240 235 233 230 230 228 228 221 222 220 219 218 219 215 212 212 213 211 211 213 217 219 221 222 222 221 219 219 219 223 225 227 227 230 230 234 233 235 233 225 225 237 236
251 252 249 246 236 231 226 224 224 223 230 219 219 219 216 216 216 215 214 211 211 211 211 212 216 218 220 222 223 223 222 220 219 221 224 229 226 226 227 228 232 234 234 232 227 237 236
242 244 245 237 234 227 222 219 218 216 224 217 216 216 214 213 213 214 212 211 210 209 211 211 213 213 221 224 227 226 225 225 225 225 222 225 228 225 227 230 236 239 239 236 236 232 238
233 233 239 234 227 223 218 214 211 210 212 219 210 212 209 210 212 212 210 209 208 208 210 218 221 223 225 222 226 226 226 227 225 226 225 224 229 228 231 232 230 233 236 239 236 238 239
217 236 257 239 225 219 215 209 203 196 196 212 209 207 207 206 209 211 210 212 216 221 219 218 216 220 223 223 226 228 225 225 228 230 230 229 231 233 231 231 227 230 235 237 237 238 241
226 255 256 232 227 221 211 204 195 193 194 213 205 206 205 202 206 209 210 210 212 216 217 220 217 219 222 224 224 227 227 227 227 228 231 233 233 230 231 233 233 232 235 236 239 238 241
242 247 240 228 229 223 203 201 194 193 198 204 203 202 201 202 204 206 207 208 212 214 216 216 218 219 219 221 220 222 223 224 225 225 225 227 228 228 228 231 233 233 235 234 236 238 241
247 232 234 228 225 218 198 194 186 187 181 204 200 201 201 204 204 205 208 210 212 213 212 213 214 218 221 224 222 220 221 220 220 217 219 226 228 232 230 231 231 233 230 232 234 237 239
252 238 232 233 217 205 191 186 182 185 177 198 198 198 197 200 199 201 205 207 208 207 211 212 211 212 217 220 221 219 216 217 216 214 210 216 222 229 230 227 230 232 232 232 234 236 238
236 230 224 204 201 196 188 184 182 179 174 195 198 194 196 200 200 199 203 203 203 209 208 212 211 213 214 215 215 215 217 217 219 218 221 222 232 238 236 234 231 231 231 234 235 235 244
229 188 173 184 191 192 182 180 178 170 173 190 197 193 194 197 198 202 197 202 204 208 208 213 214 214 216 216 217 218 217 218 224 229 229 234 235 240 242 239 237 238 238 237 238 241 245
176 171 175 179 182 182 179 170 166 167 182 190 190 191 192 195 197 201 201 199 206 211 213 216 215 214 215 216 220 222 224 225 231 236 241 240 239 238 242 238 237 231 239 241 239 242 244
171 177 176 175 179 175 182 174 162 173 180 187 188 191 188 192 197 201 202 204 204 207 212 215 216 217 217 219 221 223 227 231 233 235 234 239 240 238 233 233 237 241 242 242 241 244 245
158 161 168 176 176 172 171 174 177 190 182 187 185 182 185 189 194 199 203 194 194 208 203 207 215 215 216 218 223 226 231 234 233 233 234 234 234 232 232 232 240 235 225 229 236 241 246
130 133 146 166 160 164 170 171 183 181 182 182 183 180 183 184 191 200 200 198 199 197 202 206 210 213 221 226 225 225 228 230 230 232 235 237 236 234 229 228 230 244 234 239 246 248 255
112 131 128 161 152 164 163 170 176 179 183 188 187 182 185 187 194 198 201 201 201 202 202 211 218 223 225 225 227 229 228 231 233 230 234 233 234 234 234 230 221 228 247 243 247 247 246
118 121 140 142 161 162 165 175 178 182 184 188 184 181 185 191 196 201 204 205 207 206 209 212 215 220 225 227 226 224 228 228 231 230 229 231 232 235 236 238 235 231 229 233 244 249 246
127 132 137 155 168 162 168 171 175 178 182 182 189 190 193 196 200 204 205 211 211 212 213 214 218 221 226 229 229 227 224 230 230 230 226 227 229 233 233 229 234 234 233 238 246 247 249
139 139 143 151 158 164 169 175 175 177 179 182 189 194 197 200 199 203 200 204 211 216 221 224 228 229 230 233 234 236 233 230 229 231 228 226 229 231 231 227 235 238 234 237 243 239 244
146 150 158 156 158 162 160 172 173 175 180 186 187 193 200 205 206 201 204 206 209 211 215 220 225 230 231 235 235 232 230 229 230 227 232 225 228 230 227 221 240 242 228 236 239 235 240
146 150 154 159 162 164 166 174 176 178 182 189 196 196 196 200 200 203 205 210 216 221 224 226 226 228 230 229 232 231 232 229 228 222 224 227 226 234 228 231 241 222 234 230 245 240 242
153 161 161 162 164 172 173 177 181 186 194 191 192 191 187 195 202 205 206 210 212 214 221 224 226 230 235 236 235 233 230 229 224 222 218 222 216 222 234 239 245 233 228 229 243 234 238
150 154 172 175 176 181 184 186 187 185 185 175 178 184 191 194 200 199 205 205 209 216 225 232 237 237 236 235 237 239 234 233 225 226 219 213 223 232 221 240 243 231 237 235 240 235 236
157 156 162 175 183 191 193 191 191 186 182 173 181 189 196 198 196 197 202 208 218 224 231 236 237 238 237 239 240 238 238 234 230 225 225 225 233 233 230 231 237 231 225 244 239 223 236
166 168 166 168 182 173 183 183 182 185 175 183 191 195 196 194 195 202 209 217 227 236 242 244 241 238 237 238 242 241 242 239 235 228 227 238 229 232 235 232 229 227 233 248 240 236 243
162 171 172 172 174 190 184 185 181 185 193 201 196 204 197 196 202 210 219 232 234 238 239 240 243 242 238 238 236 235 242 238 228 225 226 237 233 248 241 229 223 231 235 244 230 234 245
Height
5505 5509 5515 5523 5530 5539 5548 5555 5562 5571 5579 5587 5597 5607 5615 5624 5634 5644 5655 5665 5675 5683 5691 5699 5706 5714 5720 5728 5738 5746 5754 5762 5767 5774 5781 5789 5793 5800 5806 5811 5817 5823 5828 5830 5832 5835 5837
5473 5479 5486 5495 5505 5516 5527 5536 5545 5555 5564 5572 5583 5593 5603 5612 5622 5633 5644 5655 5666 5674 5682 5690 5697 5705 5712 5722 5730 5737 5744 5751 5759 5765 5770 5780 5784 5789 5798 5805 5811 5817 5820 5825 5827 5829 5832
5437 5444 5454 5464 5477 5491 5504 5517 5528 5540 5549 5558 5570 5581 5590 5600 5610 5622 5634 5644 5656 5665 5673 5681 5688 5695 5703 5715 5721 5729 5736 5744 5750 5756 5762 5769 5775 5782 5791 5798 5803 5810 5814 5819 5824 5826 5828
5403 5410 5419 5431 5445 5464 5481 5496 5511 5526 5536 5545 5557 5569 5578 5589 5600 5611 5624 5634 5646 5656 5664 5671 5677 5685 5694 5702 5713 5722 5729 5737 5743 5748 5754 5757 5767 5775 5783 5790 5796 5803 5809 5813 5819 5822 5825
5379 5385 5392 5402 5417 5434 5454 5475 5493 5509 5519 5533 5544 5557 5565 5577 5589 5601 5612 5624 5634 5644 5651 5659 5666 5675 5682 5693 5706 5715 5723 5730 5734 5739 5745 5751 5758 5766 5773 5780 5788 5794 5803 5808 5812 5816 5818
5365 5370 5375 5382 5392 5408 5430 5451 5472 5491 5503 5516 5531 5544 5553 5566 5578 5590 5600 5610 5619 5627 5635 5646 5654 5663 5677 5694 5699 5708 5715 5721 5729 5733 5737 5741 5748 5758 5765 5772 5784 5791 5796 5801 5808 5810 5812
5349 5355 5361 5367 5375 5387 5407 5428 5453 5475 5491 5505 5518 5531 5542 5554 5566 5577 5586 5592 5604 5613 5627 5643 5656 5664 5675 5682 5686 5698 5705 5712 5717 5721 5728 5734 5739 5754 5767 5769 5774 5780 5785 5791 5799 5802 5802
5332 5338 5348 5355 5360 5370 5384 5409 5436 5461 5477 5493 5507 5520 5532 5544 5556 5566 5577 5593 5611 5625 5625 5633 5643 5652 5661 5671 5679 5687 5695 5702 5707 5717 5722 5726 5735 5751 5753 5756 5763 5768 5774 5782 5788 5794 5795
5317 5323 5330 5340 5347 5356 5370 5393 5420 5445 5462 5479 5494 5509 5522 5534 5547 5557 5576 5589 5596 5608 5616 5625 5633 5642 5652 5664 5672 5679 5687 5695 5700 5706 5714 5721 5735 5734 5739 5746 5754 5761 5767 5773 5779 5784 5785
5301 5305 5313 5323 5334 5344 5357 5380 5406 5433 5452 5468 5482 5498 5513 5524 5535 5551 5566 5577 5589 5598 5604 5613 5624 5632 5641 5650 5662 5671 5679 5687 5693 5703 5707 5711 5716 5723 5731 5738 5745 5752 5760 5763 5766 5771 5777
5281 5286 5294 5305 5317 5331 5346 5370 5394 5420 5435 5457 5472 5488 5503 5517 5535 5547 5565 5569 5578 5585 5591 5602 5612 5622 5632 5642 5656 5664 5670 5676 5686 5692 5696 5709 5711 5716 5721 5736 5735 5744 5747 5751 5754 5759 5765
5252 5260 5272 5285 5301 5319 5336 5361 5387 5413 5428 5447 5464 5480 5494 5506 5522 5539 5548 5558 5564 5571 5577 5589 5602 5613 5623 5635 5646 5655 5662 5668 5676 5683 5691 5697 5703 5705 5716 5721 5726 5733 5735 5739 5743 5747 5746
5234 5240 5247 5264 5289 5308 5327 5355 5380 5401 5422 5442 5458 5474 5488 5504 5520 5528 5537 5544 5553 5558 5573 5584 5598 5609 5619 5628 5635 5644 5651 5656 5666 5673 5683 5687 5693 5697 5705 5710 5716 5720 5726 5729 5731 5729 5741
5228 5234 5243 5261 5282 5301 5322 5350 5375 5394 5413 5435 5454 5467 5481 5498 5508 5518 5527 5537 5543 5554 5569 5582 5593 5602 5611 5618 5625 5636 5641 5647 5657 5666 5673 5679 5685 5690 5699 5703 5712 5714 5716 5719 5721 5724 5740
5229 5237 5249 5262 5280 5297 5319 5346 5370 5391 5413 5433 5448 5458 5474 5490 5501 5512 5522 5528 5537 5553 5565 5574 5583 5591 5598 5608 5619 5626 5632 5641 5649 5658 5664 5670 5673 5683 5689 5693 5699 5705 5703 5721 5712 5716 5719
5234 5241 5253 5266 5281 5298 5318 5348 5370 5390 5407 5425 5439 5454 5469 5484 5495 5506 5517 5527 5536 5547 5558 5565 5574 5583 5592 5602 5608 5615 5622 5634 5644 5651 5654 5660 5666 5672 5679 5683 5687 5694 5705 5702 5704 5707 5709
5237 5248 5258 5268 5282 5301 5329 5352 5373 5390 5402 5420 5436 5450 5464 5478 5491 5501 5509 5522 5531 5539 5549 5558 5568 5577 5586 5594 5602 5610 5618 5627 5634 5640 5643 5649 5654 5662 5667 5670 5678 5682 5686 5690 5695 5698 5700
5247 5256 5264 5274 5289 5314 5338 5359 5373 5385 5398 5417 5431 5445 5459 5472 5485 5493 5505 5515 5523 5532 5543 5555 5562 5571 5579 5588 5594 5601 5610 5618 5624 5629 5636 5644 5645 5648 5659 5665 5671 5675 5679 5685 5687 5696 5698
5263 5269 5276 5287 5304 5329 5347 5360 5372 5388 5405 5419 5430 5446 5457 5469 5475 5487 5502 5514 5524 5534 5542 5550 5558 5564 5573 5581 5587 5594 5603 5608 5613 5621 5629 5634 5632 5639 5645 5653 5659 5664 5669 5675 5682 5683 5682
5279 5284 5295 5308 5323 5340 5352 5367 5381 5395 5408 5422 5430 5439 5452 5462 5476 5489 5498 5508 5518 5529 5538 5546 5551 5559 5566 5573 5580 5586 5593 5598 5603 5612 5618 5621 5625 5628 5636 5645 5654 5658 5660 5665 5670 5670 5681
5296 5303 5314 5324 5336 5348 5360 5373 5386 5397 5408 5421 5432 5439 5450 5460 5472 5485 5496 5507 5511 5519 5529 5537 5544 5552 5559 5565 5570 5578 5586 5590 5595 5600 5607 5609 5614 5619 5627 5632 5637 5643 5649 5656 5658 5669 5665
5306 5314 5324 5335 5345 5356 5366 5377 5386 5398 5410 5420 5431 5443 5452 5462 5469 5479 5489 5498 5508 5518 5526 5533 5541 5548 5553 5559 5569 5574 5579 5582 5586 5590 5593 5600 5606 5612 5616 5624 5628 5631 5636 5642 5647 5657 5657
5313 5322 5332 5341 5351 5360 5371 5380 5390 5402 5413 5423 5433 5443 5454 5461 5468 5478 5488 5497 5505 5512 5520 5527 5534 5539 5546 5557 5559 5560 5562 5569 5575 5581 5585 5591 5598 5601 5604 5617 5618 5612 5627 5637 5639 5645 5653
5323 5330 5338 5346 5355 5364 5374 5383 5394 5405 5415 5425 5434 5442 5450 5460 5469 5478 5487 5496 5503 5509 5514 5521 5526 5532 5539 5540 5542 5547 5552 5558 5564 5571 5577 5585 5591 5593 5600 5601 5591 5612 5619 5630 5632 5637 5644
5328 5336 5344 5352 5360 5367 5376 5385 5395 5405 5414 5423 5433 5442 5451 5460 5469 5475 5483 5490 5496 5501 5506 5512 5519 5524 5525 5529 5532 5535 5541 5544 5554 5562 5569 5578 5581 5584 5586 5589 5594 5601 5613 5621 5622 5631 5637
5333 5341 5348 5355 5361 5369 5377 5386 5395 5405 5414 5423 5431 5440 5451 5458 5465 5471 5478 5485 5491 5498 5503 5507 5512 5514 5515 5519 5521 5524 5529 5538 5545 5551 5561 5567 5572 5572 5580 5577 5579 5601 5610 5615 5612 5611 5627
5337 5342 5349 5354 5363 5369 5377 5385 5395 5403 5413 5421 5430 5439 5446 5453 5459 5467 5475 5482 5487 5492 5496 5500 5503 5504 5506 5508 5511 5515 5520 5528 5532 5540 5551 5557 5562 5560 5568 5570 5579 5591 5597 5598 5599 5621 5613
5339 5347 5354 5359 5364 5374 5380 5389 5397 5404 5412 5422 5430 5437 5444 5451 5459 5466 5472 5477 5482 5486 5487 5490 5491 5494 5497 5499 5503 5508 5511 5520 5523 5531 5541 5549 5549 5554 5558 5562 5571 5579 5584 5590 5601 5604 5604
5341 5347 5354 5361 5369 5375 5382 5391 5398 5405 5413 5421 5429 5436 5443 5450 5457 5462 5467 5471 5474 5477 5480 5482 5484 5487 5490 5492 5496 5501 5505 5511 5518 5525 5535 5536 5541 5545 5550 5559 5562 5566 5574 5578 5586 5591 5593